Location: Johnson City
(36.3130°N, 82.3540°W)
Time: 15:34:02
(UTC-05:00)

Tiangong 2 - Visible Passes

Search period start: 23 November 2017 00:00
Search period end: 03 December 2017 00:00
Orbit: 386 x 392 km, 42.8° (Epoch: 23 November)

Date Brightness Start Highest point End Pass type
(mag) Time Alt. Az. Time Alt. Az. Time Alt. Az.
24 Nov 3.8 06:38:43 10° SSW 06:41:15 22° SE 06:43:49 10° E visible
25 Nov 4.3 05:42:00 10° SSE 05:43:15 12° SE 05:44:30 10° ESE visible
26 Nov 2.2 06:18:28 10° SW 06:21:31 44° SSE 06:24:36 10° ENE visible
27 Nov 3.2 05:22:52 22° SSE 05:23:25 23° SE 05:26:03 10° E visible
28 Nov 1.0 06:00:28 31° WSW 06:01:50 89° SSE 06:05:02 10° ENE visible
29 Nov 3.7 05:05:30 20° E 05:05:30 20° E 05:06:43 10° ENE visible
29 Nov 1.9 06:37:50 12° W 06:40:32 35° NNW 06:43:31 10° NE visible
30 Nov 1.7 05:42:40 45° NNE 05:42:40 45° NNE 05:45:19 10° ENE visible
01 Dec 2.4 06:19:41 20° NW 06:20:58 27° N 06:23:47 10° NE visible
02 Dec 3.4 05:24:18 19° NE 05:24:18 19° NE 05:25:31 10° NE visible
02 Dec 2.6 06:57:12 10° NW 06:59:54 24° N 07:02:36 10° ENE visible
